Header for Extended Forecast Station List Page

Search by: ID | Name | Date | Parm | Value | Avg | % Avg
Sort by: ID | Name | Date | Parm | Value | Avg | % Avg

Enter search or view all records.

Click on id for station plot
#IDNameDateParmValueAvg% Avg
0HWRI1BIG LOST-AT HOWELL RANCH NEAR CHILLY07-21-2014DISCHARGE (KAF)234058
1MACI1BIG LOST-MACKAY RESERVOIR NEAR MACKAY07-21-2014INFLOW (KAF)3328117
2HALI1BIG WOOD-AT HAILEY07-21-2014DISCHARGE (KAF)375865
3MAGI1BIG WOOD-MAGIC DAM07-21-2014INFLOW (KAF)112840
4BITM8BITTERROOT-NEAR MISSOULA07-21-2014DISCHARGE (KAF)288232124
5BONM8BLACKFOOT-NEAR BONNER07-21-2014DISCHARGE (KAF)181180101
6BIGI1BOISE-AT GLENWOOD BRIDGE07-21-2014DISCHARGE (KAF)10014569
7LUCI1BOISE-LUCKY PEAK DAM07-21-2014INFLOW (KAF)301MM
8PARI1BOISE-NEAR PARMA07-21-2014DISCHARGE (KAF)15921973
9HOTI1BRUNEAU-NEAR HOT SPRINGS07-21-2014DISCHARGE (KAF)62229
10BULO3BULLY CREEK-BULLY CREEK DAM07-21-2014INFLOW (KAF)0041
11BUDW1BUMPING-BUMPING LAKE DAM07-21-2014INFLOW (KAF)2422110
12CHDW1CHELAN-LAKE CHELAN DAM07-21-2014INFLOW (KAF)19424978
13ABOM8CLARK FORK-ABOVE MISSOULA07-21-2014DISCHARGE (KAF)407392104
14DLGM8CLARK FORK-AT DEER LODGE07-21-2014DISCHARGE (KAF)5145112
15SRGM8CLARK FORK-AT ST REGIS07-21-2014DISCHARGE (KAF)874826106
16BELM8CLARK FORK-BELOW MISSOULA07-21-2014DISCHARGE (KAF)697630111
17CABI1CLARK FORK-CABINET GORGE DAM07-21-2014INFLOW (KAF)3100314499
18NOXM8CLARK FORK-NOXON RAPIDS DAM07-21-2014INFLOW (KAF)2831296296
19DRMM8CLARK FORK-NR DRUMMOND07-21-2014DISCHARGE (KAF)139MM
20CLUW1CLE ELUM-CLE ELUM LAKE07-21-2014INFLOW (KAF)10177131
21ORFI1CLEARWATER-AT OROFINO07-21-2014DISCHARGE (KAF)564517109
22SPDI1CLEARWATER-AT SPALDING07-21-2014DISCHARGE (KAF)19591038189
23COEI1COEUR D ALENE-COEUR D ALENE LAKE07-21-2014INFLOW (KAF)251229110
24CIBW1COLUMBIA-AT INTL BOUNDARY07-21-2014DISCHARGE (KAF)23112MM
25BONO3COLUMBIA-BONNEVILLE DAM07-21-2014INFLOW (KAF)32720MM
26CHJW1COLUMBIA-CHIEF JOSEPH DAM07-21-2014INFLOW (KAF)2353220520115
27GCDW1COLUMBIA-GRAND COULEE DAM07-21-2014INFLOW (KAF)2389621275112
28JDAO3COLUMBIA-JOHN DAY DAM07-21-2014INFLOW (KAF)3166029137109
29MCDW1COLUMBIA-MCNARY DAM07-21-2014INFLOW (KAF)3121928647109
30PRWW1COLUMBIA-PRIEST RAPIDS DAM07-21-2014INFLOW (KAF)2446622037111
31RRHW1COLUMBIA-ROCKY REACH DAM07-21-2014INFLOW (KAF)2415921324113
32TDAO3COLUMBIA-THE DALLES DAM07-21-2014INFLOW (KAF)3225029517109
33WANW1COLUMBIA-WANAPUM DAM07-21-2014INFLOW (KAF)2446021595113
34WELW1COLUMBIA-WELLS DAM07-21-2014INFLOW (KAF)2391420782115
35DEDI1DEADWOOD-NEAR LOWMAN07-21-2014INFLOW (KAF)172082
36MODO3DESCHUTES-AT MOODY NR BIGGS07-21-2014DISCHARGE (KAF)1073110097
37ARDW1ENTIAT-NEAR ARDENVOIR07-21-2014DISCHARGE (KAF)323492
38CHEI1FALLS-NEAR CHESTER07-21-2014DISCHARGE (KAF)8378106
39CFMM8FLATHEAD-AT COLUMBIA FALLS07-21-2014DISCHARGE (KAF)13561224111
40KERM8FLATHEAD-KERR DAM07-21-2014INFLOW (KAF)15581454107
41TRYO3GRANDE RONDE-TROY07-21-2014DISCHARGE (KAF)18920393
42REXI1HENRYS FORK-AT REXBURG07-21-2014DISCHARGE (KAF)32937588
43ANTI1HENRYS FORK-AT ST. ANTHONY07-21-2014DISCHARGE (KAF)26531983
44IPDI1HENRYS FORK-ISLAND PARK DAM07-21-2014INFLOW (KAF)10814475
45HODO3HOOD-NEAR TUCKER BRIDGE07-21-2014DISCHARGE (KAF)11697120
46SERO3JOHN DAY-AT SERVICE CK07-21-2014DISCHARGE (KAF)506182
47KADW1KACHESS-KACHESS DAM07-21-2014INFLOW (KAF)2617150
48LAUW1KETTLE-AT LAURIER07-21-2014DISCHARGE (KAF)12015975
49PITW1KLICKITAT-NEAR PITT07-21-2014DISCHARGE (KAF)18819198
50BFEI1KOOTENAI-AT BONNERS FERRY07-21-2014STAGE (FT)MMM
51LEOI1KOOTENAI-AT LEONIA07-21-2014DISCHARGE (KAF)2072227991
52LYDM8KOOTENAI-LIBBY DAM07-21-2014INFLOW (KAF)1736178197
53LWRI1LITTLE WOOD-LITTLE WOOD DAM07-21-2014INFLOW (KAF)91558
54BERO3MALHEUR-AGENCY VALLEY DAM07-21-2014INFLOW (KAF)87115
55VALO3MALHEUR-NEAR VALE07-21-2014DISCHARGE (KAF)32610
56WRMO3MALHEUR-WARM SPRINGS DAM07-21-2014INFLOW (KAF)54117
57MYKO3MCKAY CREEK-NEAR PILOT ROCK07-21-2014DISCHARGE (KAF)11109
58PATW1METHOW-NEAR PATEROS07-21-2014DISCHARGE (KAF)11013581
59WGCM8MF FLATHEAD-NEAR WEST GLACIER07-21-2014DISCHARGE (KAF)338267126
60CLFW1NACHES-NEAR CLIFFDEL07-21-2014DISCHARGE (KAF)658577
61NACW1NACHES-NEAR NACHES07-21-2014DISCHARGE (KAF)134121111
62DWRI1NF CLEARWATER-DWORSHAK DAM07-21-2014INFLOW (KAF)427373115
63FCFM8NF FLATHEAD-NEAR COLUMBIA FALLS07-21-2014DISCHARGE (KAF)377321118
64MONO3NF JOHN DAY-AT MONUMENT07-21-2014DISCHARGE (KAF)323688
65CSDI1NF PAYETTE-CASCADE DAM07-21-2014INFLOW (KAF)7466112
66TONW1OKANOGAN-NEAR TONASKET07-21-2014DISCHARGE (KAF)26331484
67OWYO3OWYHEE-BELOW OWYHEE DAM07-21-2014INFLOW (KAF)235144
68EMMI1PAYETTE-NEAR EMMETT07-21-2014DISCHARGE (KAF)28840471
69ALFW1PEND OREILLE-ALBENI FALLS DAM07-21-2014INFLOW (KAF)3015341788
70HOPI1PEND OREILLE-PEND OREILLE LAKE NR HOPE07-21-2014LAKE ELEVATION (FT)MMM
71PIHI1PORTNEUF-AT POCATELLO07-21-2014DISCHARGE (KAF)263084
72PRTI1PRIEST-NEAR PRIEST RIVER07-21-2014DISCHARGE (KAF)12516476
73RCCM8ROCK CREEK-NEAR CLINTON07-21-2014DISCHARGE (KAF)7168104
74WHBI1SALMON-AT WHITEBIRD07-21-2014DISCHARGE (KAF)1205126096
75ARAI1SF BOISE-ANDERSON RANCH DAM07-21-2014INFLOW (KAF)697394
76HHWM8SF FLATHEAD-HUNGRY HORSE DAM07-21-2014INFLOW (KAF)302257117
77PLDI1SF SNAKE-PALISADES DAM07-21-2014INFLOW (KAF)1177128691
78SIFI1SNAKE-AB EAGLE ROCK NR IDAHO FALLS07-21-2014DISCHARGE (KAF)11981175102
79AFRI1SNAKE-AMERICAN FALLS RESERVOIR07-21-2014INFLOW (KAF)13011226106
80SNAI1SNAKE-AT BLACKFOOT07-21-2014DISCHARGE (KAF)738577128
81MILI1SNAKE-AT MILNER07-21-2014DISCHARGE (KAF)185148125
82WEII1SNAKE-AT WEISER07-21-2014DISCHARGE (KAF)2490305082
83SWAI1SNAKE-BELOW SWAN FALLS07-21-2014DISCHARGE (KAF)1781208386
84BRNI1SNAKE-BROWNLEE DAM07-21-2014INFLOW (KAF)2627310585
85IHDW1SNAKE-ICE HARBOR DAM07-21-2014INFLOW (KAF)60385766105
86JLKW4SNAKE-JACKSON LAKE AT DAM07-21-2014INFLOW (KAF)15516495
87LGSW1SNAKE-LITTLE GOOSE DAM07-21-2014INFLOW (KAF)60255842103
88LGDW1SNAKE-LOWER GRANITE DAM07-21-2014INFLOW (KAF)60205801104
89LMNW1SNAKE-LOWER MONUMENTAL DAM07-21-2014INFLOW (KAF)60385859103
90ALPW4SNAKE-NEAR ALPINE07-21-2014DISCHARGE (KAF)83293389
91ANAW1SNAKE-NEAR ANATONE07-21-2014DISCHARGE (KAF)4060470086
92BFTI1SNAKE-NEAR BLACKFOOT07-21-2014DISCHARGE (KAF)704571123
93HEII1SNAKE-NEAR HEISE07-21-2014DISCHARGE (KAF)16261602102
94JKSW4SNAKE-NEAR JACKSON07-21-2014DISCHARGE (KAF)66678385
95SHYI1SNAKE-NEAR SHELLEY07-21-2014DISCHARGE (KAF)1086930117
96LLKW1SPOKANE-AT LONGLAKE07-21-2014INFLOW (KAF)623604103
97SPOW1SPOKANE-AT SPOKANE07-21-2014DISCHARGE (KAF)466MM
98SJMI1ST JOE-AT ST MARIES07-21-2014STAGE (FT)MMM
99SATI1ST MARIES-NEAR SANTA07-21-2014DISCHARGE (KAF)171799
100STRM8ST. REGIS-NEAR ST. REGIS07-21-2014DISCHARGE (KAF)3431110
101TNAW1TEANAWAY-BELOW FORKS07-21-2014DISCHARGE (KAF)109103
102TEAI1TETON-NEAR ST. ANTHONY07-21-2014DISCHARGE (KAF)14516588
103RILW1TIETON-RIMROCK LAKE NEAR RIMROCK07-21-2014INFLOW (KAF)8267124
104PDTO3UMATILLA-AT PENDLETON07-21-2014DISCHARGE (KAF)1613125
105GIBO3UMATILLA-NEAR GIBBON07-21-2014DISCHARGE (KAF)1412112
106UMAO3UMATILLA-NEAR UMATILLA07-21-2014DISCHARGE (KAF)3912318
107TCHW1WALLA WALLA-NEAR TOUCHET07-21-2014DISCHARGE (KAF)91178
108WSRI1WEISER-NEAR WEISER07-21-2014DISCHARGE (KAF)435185
109PESW1WENATCHEE-AT PESHASTIN07-21-2014DISCHARGE (KAF)28429297
110UNDW1WHITE SALMON-NEAR UNDERWOOD07-21-2014DISCHARGE (KAF)157158100
111RIDI1WILLOW CREEK-RIRIE DAM07-21-2014INFLOW (KAF)2539
112EASW1YAKIMA-AT EASTON07-21-2014DISCHARGE (KAF)11971167
113KIOW1YAKIMA-AT KIONA07-21-2014DISCHARGE (KAF)627461136
114UMTW1YAKIMA-AT UMTANUM07-21-2014DISCHARGE (KAF)634528120
115KEDW1YAKIMA-KEECHELUS LAKE07-21-2014INFLOW (KAF)3527130
116PARW1YAKIMA-NEAR PARKER07-21-2014DISCHARGE (KAF)365163224